Regional Weather Roundup
Issued by NWS

Home | Current Version | Previous Version | Graphics & Text | Print | Product List | Glossary On
Versions: 1 2 3 4 5 6 7 8 9 10 11 12 13 14 15 16 17 18 19 20 21 22 23 24 25 26 27 28 29 30 31 32 33 34 35 36 37 38 39 40 41 42 43 44 45 46 47 48 49 50
230
ASUS43 KLMK 250310
RWRKY
KENTUCKY REGIONAL WEATHER ROUNDUP
NATIONAL WEATHER SERVICE LOUISVILLE KY
1100 PM EDT FRI MAR 24 2017

NOTE "FAIR" INDICATES FEW OR NO CLOUDS BELOW 12,000 FEET
WITH NO SIGNIFICANT WEATHER AND/OR OBSTRUCTIONS TO VISIBILITY.

KYZ001>023-026-027-061>063-070>075-250400-
WESTERN AND SOUTH CENTRAL KENTUCKY

CITY           SKY/WX    TMP DP  RH WIND       PRES   REMARKS
PADUCAH        MOCLDY    66  54  65 SE7       30.04F
HENDERSON      CLOUDY    61  48  63 SE5       30.08R
OWENSBORO      MOCLDY    64  54  69 S6        30.11R
HOPKINSVILLE   CLOUDY    69  54  58 S8        30.10R
BOWLING GREEN  CLOUDY    68  52  56 S10       30.13S
GLASGOW        CLOUDY    66  51  58 S8        30.16R
$$

KYZ024-025-028>034-038-045-046-053-250400-
NORTH CENTRAL KENTUCKY

CITY           SKY/WX    TMP DP  RH WIND       PRES   REMARKS
LOUISVILLE/SDF MOCLDY    69  50  50 SW6       30.13R
LOUISVILLE/LOU MOCLDY    69  52  54 S6        30.13R
FORT KNOX      PTCLDY    65  53  63 S7        30.12R
$$

KYZ035>037-039>044-047>052-055>060-089>105-250400-
NORTHEAST KENTUCKY

CITY           SKY/WX    TMP DP  RH WIND       PRES   REMARKS
LEXINGTON      MOCLDY    66  49  54 S17       30.15F
COVINGTON      CLOUDY    67  52  58 SW8       30.14R
FRANKFORT      CLOUDY    67  50  54 S9        30.13S
$$

KYZ054-064>069-076>088-106>120-250400-
SOUTHEAST KENTUCKY

CITY           SKY/WX    TMP DP  RH WIND       PRES   REMARKS
JACKSON        CLEAR     64  48  56 VRB7      30.23S
LONDON         PTCLDY    63  46  54 S5        30.23F
SOMERSET       MOCLDY    61  46  59 S3        30.23F
MIDDLESBORO    PTCLDY    62  48  61 CALM      30.27S
MONTICELLO     MOCLDY    64  49  57 VRB6      30.23F
$$





USA.gov is the U.S. government's official web portal to all federal, state and local government web resources and services.